Regional Weather Roundup
Issued by NWS

Home | Current Version | Previous Version | Graphics & Text | Print | Product List | Glossary On
Versions: 1 2 3 4 5 6 7 8 9 10 11 12 13 14 15 16 17 18 19 20 21 22 23 24 25 26 27 28 29 30 31 32 33 34 35 36 37 38 39 40 41 42 43 44 45 46 47 48 49 50
000
ASUS43 KTOP 240559
RWRKS

WEATHER ROUNDUP FOR KANSAS
NATIONAL WEATHER SERVICE GOODLAND KS
1200 AM CST WED JAN 24 2018

NOTE:  "FAIR" INDICATES FEW OR NO CLOUDS BELOW 12,000 FEET WITH NO
SIGNIFICANT WEATHER AND/OR OBSTRUCTIONS TO VISIBILITY.

KSZ001>006-013>018-027>032-041>047-240700-
NORTHWEST KANSAS

CITY           SKY/WX    TMP DP  RH WIND       PRES   REMARKS
GOODLAND       CLEAR     17  11  77 W9        30.31F
6HR MIN TEMP:  17; 6HR MAX TEMP:  27;

HAYS           CLEAR     24  21  88 W9        30.34R
HILL CITY      CLEAR     25  21  85 W6        30.33S
6HR MIN TEMP:  25; 6HR MAX TEMP:  36;

RUSSELL        CLEAR     27  23  85 W8        30.31S
6HR MIN TEMP:  27; 6HR MAX TEMP:  36;

$$

KSZ061>065-074>080-084>089-240700-
SOUTHWEST KANSAS

CITY           SKY/WX    TMP DP  RH WIND       PRES   REMARKS
DODGE CITY     CLEAR     27  18  69 W9        30.36R
6HR MIN TEMP:  25; 6HR MAX TEMP:  39;

GARDEN CITY    CLEAR     19  13  77 NW10      30.35R WCI   7
6HR MIN TEMP:  18; 6HR MAX TEMP:  36;

GREAT BEND     CLEAR     27  22  81 W12       30.34R WCI  17
LIBERAL        CLEAR     16  10  77 W9        30.37S
$$

KSZ066>073-081>083-090>101-240700-
SOUTHEAST KANSAS

CITY           SKY/WX    TMP DP  RH WIND       PRES   REMARKS
CHANUTE        CLEAR     24  19  81 W5        30.31R
6HR MIN TEMP:  22; 6HR MAX TEMP:  38;

COFFEYVILLE    CLEAR     26  20  77 CALM      30.33R
6HR MIN TEMP:  26; 6HR MAX TEMP:  43;

HUTCHINSON     CLEAR     26  22  84 W3        30.32S
6HR MIN TEMP:  23; 6HR MAX TEMP:  41;

MEDICINE LODGE   N/A     26  18  71 CALM      30.35S
NEWTON         CLEAR     28  24  85 W7        30.32S
PARSONS        CLEAR     21  19  92 CALM      30.33R
6HR MIN TEMP:  21; 6HR MAX TEMP:  36;

WICHITA INTL   CLEAR     29  22  75 NW5       30.33R
6HR MIN TEMP:  27; 6HR MAX TEMP:  44;

WICHITA JABRA  CLEAR     30  24  78 W7        30.32S
6HR MIN TEMP:  30; 6HR MAX TEMP:  42;

WICHITA MCCONL CLEAR     33  23  67 NW8       30.32S
WINFIELD       CLEAR     27  19  72 CALM      30.35R
6HR MIN TEMP:  25; 6HR MAX TEMP:  42;

$$

KSZ007>012-019>026-033>040-048>060-102>105-240700-
NORTHEAST KANSAS

CITY           SKY/WX    TMP DP  RH WIND       PRES   REMARKS
CONCORDIA      CLEAR     29  26  89 W8        30.28S
6HR MIN TEMP:  28; 6HR MAX TEMP:  35;

EMPORIA        CLEAR     28  23  81 W9        30.29S
6HR MIN TEMP:  27; 6HR MAX TEMP:  35;

LAWRENCE       CLEAR     24  23  96 CALM      30.28R FOG
6HR MIN TEMP:  23; 6HR MAX TEMP:  31;

MANHATTAN      CLEAR     26  22  84 SW7       30.30R
6HR MIN TEMP:  24; 6HR MAX TEMP:  37;

OLATHE IND     PTCLDY    25  23  92 SW3       30.27S
6HR MIN TEMP:  23; 6HR MAX TEMP:  30;

OLATHE EXE     MOCLDY    27  24  89 W5        30.26S
6HR MIN TEMP:  24; 6HR MAX TEMP:  31;

SALINA         CLEAR     31  26  82 W9        30.31S
6HR MIN TEMP:  31; 6HR MAX TEMP:  36;

TOPEKA BILLARD CLEAR     28  26  92 W3        30.28S
6HR MIN TEMP:  25; 6HR MAX TEMP:  33;

TOPEKA FORBES  CLEAR     27  23  85 CALM      30.27R
6HR MIN TEMP:  25; 6HR MAX TEMP:  33;

$$



USA.gov is the U.S. government's official web portal to all federal, state and local government web resources and services.